Temperature
18 17 17 16 16 16 15 15 15 14 14 14 14 14 14 14 13 13 13 13 13 13 13 13 13 13 13 13 13 13 14 14 14 14 14 14 14 14 14 14 14 14 15
18 17 17 16 16 16 15 15 15 15 15 14 14 14 14 14 14 13 13 13 13 13 13 13 13 13 13 13 13 13 13 13 14 14 13 13 13 13 14 14 14 14 14
17 17 16 16 16 16 15 15 15 15 15 14 14 14 14 14 14 13 13 13 13 13 13 13 13 13 13 13 13 13 13 13 13 13 13 13 13 13 13 13 13 14 14
17 17 16 16 16 15 15 15 15 15 15 15 15 14 14 14 14 14 14 13 13 13 13 13 13 13 13 13 13 13 13 13 13 13 13 13 13 13 13 13 13 13 13
17 16 16 15 15 15 15 15 15 15 15 15 14 14 14 14 14 14 14 14 14 14 13 13 13 13 13 13 13 13 13 13 13 13 13 13 13 13 13 13 13 13 13
16 16 16 15 15 15 15 15 15 15 15 15 15 14 14 14 14 14 14 14 14 14 14 13 13 13 13 13 13 13 13 12 13 13 13 13 13 13 12 12 12 13 13
15 15 15 15 15 15 15 15 15 15 15 15 15 15 14 14 14 14 14 14 14 14 14 14 13 13 13 13 13 13 13 13 13 12 13 13 13 12 12 12 12 12 12
15 14 14 15 15 15 15 15 15 15 15 15 15 15 15 15 15 14 14 14 14 13 13 13 13 13 13 13 13 13 12 12 13 12 12 12 12 12 12 12 12 12 12
14 14 14 14 14 14 14 14 14 14 14 15 15 15 15 15 15 15 14 14 13 13 13 13 13 13 13 13 13 13 12 12 12 12 12 12 12 12 12 12 12 12 12
13 13 13 13 13 14 14 14 14 14 14 14 14 15 14 14 14 14 14 14 14 14 13 13 14 13 13 13 13 13 12 12 12 12 12 12 12 12 12 12 11 12 12
12 12 12 12 13 13 13 13 13 14 14 14 14 14 14 14 14 14 14 14 14 14 14 13 13 14 13 13 13 13 12 12 12 12 12 12 11 11 12 11 11 11 12
11 11 11 12 12 12 12 13 13 13 13 13 13 13 14 14 14 14 14 14 14 13 13 13 13 13 13 13 13 13 12 12 12 12 12 12 11 11 11 11 11 11 11
11 11 11 11 11 11 11 11 12 12 12 12 12 12 13 13 13 14 14 14 14 13 13 13 13 13 13 13 13 12 12 12 11 11 11 11 11 11 11 11 11 11 11
10 10 10 10 10 10 10 10 11 11 11 11 11 11 12 12 12 12 13 13 13 13 13 13 13 13 13 12 12 12 12 11 11 11 11 11 11 11 11 11 10 10 10
9 9 9 9 9 9 10 10 10 10 10 10 10 10 10 11 11 11 12 12 12 12 12 12 12 12 12 12 11 11 11 11 11 11 11 11 11 10 10 10 10 10 9
9 9 9 9 9 9 9 9 9 9 9 10 10 10 10 10 11 11 11 12 12 11 11 11 11 12 12 12 11 11 11 11 11 11 11 10 10 10 10 10 10 9 9
9 8 8 8 8 8 8 8 8 8 9 9 9 9 10 10 10 10 11 11 11 11 10 11 11 11 11 11 11 11 11 11 11 10 10 10 10 10 10 9 9 9 9
8 8 8 7 7 7 7 7 7 7 8 8 8 9 9 9 10 10 10 10 10 10 10 10 11 11 11 11 11 11 11 10 10 10 10 10 10 10 9 9 9 8 8
8 7 7 7 7 7 7 7 7 7 7 7 7 8 8 8 9 9 9 9 9 9 9 10 10 10 11 11 11 11 11 11 10 10 10 10 9 9 9 9 8 8 8
7 7 7 6 6 7 7 7 7 7 7 7 7 7 7 7 7 8 8 8 8 8 9 9 9 10 10 10 10 10 10 10 10 10 9 9 9 9 9 8 8 8 7
7 7 6 6 6 6 6 6 6 6 6 6 6 6 6 6 6 7 7 7 8 8 8 9 9 9 9 10 10 10 10 10 10 9 9 9 9 9 8 8 7 7 7
6 6 6 6 6 6 6 6 6 6 5 5 6 6 6 6 6 6 6 7 7 7 7 8 8 9 9 9 9 10 10 9 9 9 9 9 8 8 8 8 7 7 6
6 6 6 6 6 6 5 5 5 5 5 5 5 5 5 5 5 6 6 6 6 7 7 7 7 8 8 8 9 9 9 9 9 9 9 9 8 8 8 7 7 7 6
5 5 5 5 5 5 5 5 5 5 5 5 5 5 5 5 5 5 5 5 6 6 6 7 7 7 8 8 8 8 9 9 9 9 9 9 8 8 7 7 7 6 6
5 5 5 5 5 5 5 4 4 4 4 4 4 4 4 4 4 4 5 5 5 6 6 6 6 7 7 7 8 8 8 8 8 8 8 8 8 8 7 7 6 6 5
5 5 5 5 5 4 4 4 4 4 4 4 4 4 3 3 3 4 4 4 5 5 5 6 6 6 6 7 7 7 8 8 8 8 8 8 7 7 7 6 6 5 5
Wind_Speed
5 6 6 6 6 7 7 6 6 6 5 5 5 5 4 3 3 2 3 2 3 2 1 1 1 2 1 1 1 1 1 1 2 2 2 2 2 2 3 3 3 3 4
4 5 6 6 6 7 7 7 7 7 6 6 5 5 5 4 4 3 3 3 3 2 2 1 1 0 1 1 1 1 1 1 2 3 3 2 2 2 2 2 2 2 3
3 5 5 6 7 7 7 7 7 7 7 7 6 7 6 5 5 5 4 4 4 3 3 2 2 1 1 0 1 1 1 1 1 2 3 2 1 2 2 2 3 2 3
2 4 5 6 7 7 7 7 8 7 8 8 8 8 7 6 6 6 5 5 5 4 4 4 3 3 2 1 1 2 1 2 2 2 2 2 2 1 2 2 2 2 2
3 3 5 6 6 7 7 7 8 8 8 8 9 9 8 7 7 7 7 6 6 6 5 5 4 2 2 2 2 2 3 3 3 3 3 3 3 3 2 2 2 3 2
4 4 5 6 6 7 8 8 8 9 9 9 10 10 10 8 7 7 9 8 8 8 7 6 6 6 6 5 4 3 3 4 3 3 3 4 4 3 2 3 3 3 3
6 6 6 6 7 7 8 8 9 9 10 10 10 10 11 11 9 11 12 10 9 9 8 7 6 6 7 7 8 8 6 4 4 4 4 4 4 4 4 4 3 3 2
8 8 7 7 7 7 8 8 9 10 10 10 11 11 11 11 11 12 12 12 11 11 10 9 9 9 8 8 7 7 7 6 6 6 5 4 3 3 4 3 3 3 3
9 9 9 9 8 8 8 9 9 10 10 11 11 12 13 13 12 13 13 11 11 13 12 11 11 11 9 9 9 8 8 6 5 2 2 2 4 2 2 4 4 5 4
10 10 10 10 10 9 10 10 9 9 10 11 11 12 13 14 11 14 15 11 12 12 11 11 11 12 9 12 12 10 10 8 7 7 6 5 5 5 5 6 5 5 4
9 10 10 10 10 10 10 9 9 9 9 10 12 11 12 13 12 13 15 12 12 12 11 11 10 14 12 14 13 11 9 8 8 8 7 7 6 6 6 6 5 4 4
9 9 10 10 10 10 10 9 9 9 9 10 10 11 10 11 11 12 15 17 14 13 11 11 9 14 15 15 13 10 7 7 7 7 7 7 7 6 6 6 5 4 2
10 10 10 11 10 10 10 10 9 8 8 8 9 9 9 9 9 10 14 17 17 14 11 9 7 11 13 13 13 12 11 9 9 9 9 8 7 7 6 5 6 5 4
10 11 11 11 11 11 9 9 9 9 9 9 9 10 10 9 9 8 8 10 13 13 12 9 9 10 10 9 11 12 11 11 10 10 9 8 7 7 7 7 6 6 5
11 11 11 11 11 11 10 9 10 9 9 10 10 11 11 11 9 8 9 9 10 11 10 10 10 10 11 11 11 12 12 11 11 10 9 9 8 8 7 7 7 7 7
11 11 10 10 10 11 11 11 9 11 12 14 15 14 13 14 13 12 13 13 13 10 10 11 12 13 13 13 13 13 13 12 12 11 11 10 10 9 8 7 7 7 7
12 12 11 11 11 11 12 12 13 12 11 13 15 15 15 16 15 14 13 13 13 12 13 13 13 14 14 13 13 13 13 13 12 12 12 11 10 10 9 9 8 8 7
12 11 11 11 12 12 12 13 13 14 14 13 12 12 13 14 15 14 12 9 9 11 13 14 14 13 13 13 13 13 13 12 12 12 12 12 11 11 10 10 9 9 8
12 11 11 12 13 13 13 13 13 14 14 14 14 12 10 11 12 12 10 9 10 11 12 13 13 13 13 13 13 13 13 13 13 13 12 13 12 11 11 10 9 9 8
12 12 12 13 14 14 13 14 14 14 14 14 14 13 12 11 11 10 8 10 11 11 11 12 12 13 13 12 13 13 13 13 14 14 13 13 12 12 12 12 11 10 9
12 13 13 13 13 14 14 14 14 14 14 14 14 14 12 13 13 13 11 11 11 11 11 11 11 11 12 11 12 14 16 14 14 14 13 13 13 12 11 11 11 10 9
12 13 13 14 14 14 14 15 15 15 16 17 15 14 14 13 13 13 12 12 11 10 10 10 9 9 11 12 13 14 15 15 15 14 14 13 13 13 12 11 11 10 10
14 15 15 15 15 15 15 16 15 16 16 16 16 15 14 13 13 13 13 13 11 10 10 10 10 9 10 11 13 14 15 15 15 15 15 14 13 13 12 13 13 13 12
14 15 16 15 15 16 16 16 16 17 17 17 16 16 15 15 15 15 14 13 12 11 10 10 11 12 14 12 12 13 14 14 15 15 18 16 15 13 13 13 13 13 12
15 15 16 16 16 16 17 17 17 17 17 17 16 16 15 15 15 15 14 13 13 12 12 11 10 11 15 17 15 14 14 16 16 15 16 15 16 15 14 14 13 13 12
16 17 16 16 16 16 17 18 18 18 17 17 16 16 16 15 15 15 14 14 13 12 12 10 12 13 14 15 17 16 16 18 18 17 15 14 15 14 15 13 15 13 13
Wind_Direction
228 226 229 231 233 232 240 245 254 261 253 252 260 266 266 262 260 254 281 286 287 286 265 298 341 350 341 346 311 285 276 257 179 146 138 134 143 127 119 114 121 141 138
243 236 238 238 236 239 239 244 248 254 257 257 256 258 258 258 263 266 264 264 272 283 281 267 275 320 301 318 292 256 261 271 217 164 156 147 136 114 114 110 106 100 108
255 251 248 246 245 247 247 245 249 250 251 252 248 250 253 251 249 249 252 257 256 259 267 266 261 245 254 219 238 231 222 184 199 186 165 145 158 146 125 111 102 92 96
273 263 262 259 256 257 256 251 249 248 247 251 253 249 251 248 246 246 248 253 254 249 247 248 255 250 254 235 224 225 218 193 189 195 177 174 170 177 184 162 138 128 122
311 289 284 282 275 269 265 257 254 252 251 250 252 251 247 246 246 248 245 247 251 248 239 237 236 249 343 295 264 236 214 213 203 199 194 194 190 191 196 190 173 157 146
346 323 312 298 288 277 270 264 258 254 254 252 250 250 247 243 222 230 250 249 248 246 243 236 224 209 207 210 233 264 278 241 222 207 208 208 205 199 194 204 198 194 177
7 351 336 318 303 290 280 270 262 258 255 252 250 250 247 242 212 214 227 248 250 251 248 239 229 220 213 216 202 206 220 239 263 254 227 219 213 203 203 207 207 217 206
11 1 349 333 316 303 289 276 267 263 257 252 251 249 248 243 215 216 217 234 245 245 242 241 234 228 217 221 217 215 217 209 214 231 238 231 219 200 208 216 203 196 193
7 357 348 339 327 315 303 291 281 271 265 258 252 249 249 246 216 213 215 235 239 240 238 235 235 232 201 202 224 223 221 213 184 196 4 61 74 89 199 197 195 201 198
357 349 344 339 332 323 315 306 294 280 270 267 261 253 251 252 225 208 216 236 239 239 236 233 226 234 203 190 218 224 225 219 203 189 193 191 196 184 204 220 214 218 208
347 343 341 339 333 328 323 317 305 293 282 273 268 261 256 252 236 209 211 233 239 241 238 232 225 201 207 200 219 229 224 221 212 207 203 199 198 196 194 207 217 228 227
341 339 338 336 334 332 327 321 316 306 291 283 277 272 264 256 247 225 213 226 245 243 242 238 227 188 198 202 212 218 193 199 218 212 209 204 200 199 196 193 189 193 218
334 334 332 331 332 331 328 324 320 315 305 298 290 282 275 268 253 230 223 224 229 239 244 241 225 186 193 205 210 200 191 206 212 212 212 208 203 196 185 177 174 169 161
327 328 328 328 329 327 325 322 321 317 312 307 300 293 287 277 267 256 245 237 227 232 241 228 204 198 210 216 197 198 210 213 211 212 211 206 194 185 184 181 179 177 173
317 318 321 324 322 319 317 315 311 308 306 299 298 296 291 283 282 286 271 255 242 232 227 225 219 210 209 211 210 206 206 207 208 212 208 199 192 189 186 185 186 189 198
311 314 314 315 315 314 312 309 292 278 279 273 270 276 286 286 293 282 267 260 257 236 225 226 221 217 213 211 209 207 206 206 205 204 203 198 192 191 185 182 187 194 200
303 305 307 307 308 307 307 307 308 302 280 267 265 266 268 279 283 277 266 256 244 222 227 230 225 220 217 214 211 209 208 205 202 201 199 196 193 190 187 185 188 193 196
298 299 297 297 299 300 300 300 301 303 305 305 292 272 266 271 275 271 263 253 246 226 231 231 227 222 218 215 211 209 206 201 198 198 197 195 191 189 187 189 190 193 192
296 296 298 299 297 295 295 294 294 296 297 299 301 299 286 282 274 265 248 249 245 238 234 234 230 224 219 214 211 207 203 200 197 196 196 193 190 189 189 190 189 183 190
289 284 284 291 293 292 292 292 293 294 295 295 296 298 302 302 298 289 268 257 253 248 241 237 233 228 220 214 208 203 202 199 197 196 194 191 190 189 189 188 187 185 190
289 288 283 285 288 290 291 291 291 291 291 292 292 293 293 291 288 284 275 265 257 254 248 241 237 230 222 213 207 204 201 199 196 195 191 189 188 188 187 186 186 186 186
288 289 289 289 290 289 289 290 289 288 288 289 290 290 282 278 281 281 275 268 262 257 255 248 238 231 223 214 208 205 203 200 195 192 189 187 186 186 184 182 182 183 184
284 285 287 287 288 286 285 285 285 284 284 285 286 287 287 283 281 280 277 272 265 258 253 248 239 229 227 219 212 208 206 201 195 188 185 183 183 184 183 182 182 182 185
283 284 285 287 287 287 287 287 286 285 284 284 284 284 284 283 280 279 278 274 266 258 252 245 239 230 226 222 214 210 208 200 191 188 184 181 181 181 180 181 181 183 186
281 281 283 285 287 287 287 286 285 285 284 283 283 283 282 282 280 279 277 273 267 258 251 245 239 231 227 222 212 207 195 184 181 179 180 180 179 178 178 179 180 180 182
281 281 283 284 285 285 284 284 284 284 284 284 282 281 280 279 278 276 275 273 266 258 250 241 235 231 228 222 213 197 180 173 170 169 175 176 176 177 176 177 177 179 179
Height
1514 1514 1514 1515 1515 1515 1515 1515 1515 1515 1515 1514 1514 1513 1513 1512 1511 1510 1509 1507 1507 1506 1505 1504 1503 1503 1503 1502 1502 1502 1503 1503 1504 1505 1506 1506 1507 1508 1509 1510 1511 1512 1513
1512 1512 1513 1513 1513 1513 1513 1513 1513 1513 1513 1513 1512 1512 1512 1511 1510 1509 1508 1507 1507 1506 1506 1505 1504 1503 1502 1502 1502 1502 1502 1502 1503 1504 1505 1505 1506 1507 1508 1508 1509 1511 1512
1510 1511 1511 1511 1511 1511 1511 1511 1511 1511 1511 1511 1511 1510 1510 1509 1509 1508 1507 1507 1506 1506 1505 1504 1504 1503 1502 1502 1501 1501 1501 1501 1502 1503 1504 1504 1505 1506 1507 1508 1509 1509 1510
1509 1509 1509 1509 1508 1508 1509 1508 1508 1508 1508 1508 1508 1508 1508 1507 1507 1507 1506 1506 1505 1505 1504 1503 1503 1503 1502 1502 1501 1501 1500 1501 1501 1502 1503 1503 1504 1505 1506 1507 1508 1508 1509
1507 1507 1506 1506 1506 1505 1505 1505 1505 1505 1505 1505 1505 1505 1505 1504 1504 1504 1504 1504 1503 1503 1503 1502 1501 1501 1500 1500 1500 1500 1500 1500 1501 1501 1502 1502 1503 1503 1505 1505 1507 1507 1508
1506 1505 1505 1504 1503 1502 1502 1502 1501 1501 1501 1501 1501 1501 1501 1500 1500 1500 1501 1501 1501 1501 1501 1500 1499 1498 1498 1498 1498 1498 1498 1499 1500 1500 1501 1501 1502 1503 1503 1504 1505 1507 1508
1505 1504 1503 1502 1500 1499 1499 1498 1497 1497 1497 1496 1496 1496 1496 1496 1496 1496 1497 1497 1498 1498 1498 1498 1497 1497 1496 1497 1496 1496 1496 1497 1497 1499 1499 1500 1501 1501 1502 1503 1504 1505 1506
1505 1503 1501 1499 1498 1496 1495 1494 1493 1493 1492 1491 1491 1491 1491 1491 1491 1492 1492 1493 1493 1493 1493 1494 1494 1494 1493 1494 1495 1495 1495 1495 1495 1496 1497 1498 1499 1499 1500 1501 1502 1503 1504
1503 1501 1499 1497 1495 1493 1491 1490 1489 1488 1487 1486 1486 1485 1485 1485 1486 1486 1487 1487 1488 1488 1488 1489 1489 1489 1490 1490 1491 1492 1492 1493 1493 1493 1494 1495 1496 1497 1498 1499 1500 1501 1502
1501 1499 1497 1494 1492 1490 1488 1486 1484 1483 1481 1481 1480 1479 1479 1479 1480 1480 1481 1482 1483 1483 1483 1483 1483 1484 1485 1485 1487 1488 1489 1490 1490 1490 1491 1492 1493 1494 1495 1496 1498 1499 1500
1499 1497 1494 1492 1489 1487 1484 1482 1480 1478 1476 1475 1474 1473 1473 1473 1473 1473 1474 1475 1477 1477 1478 1477 1477 1478 1479 1480 1482 1483 1484 1486 1487 1487 1488 1489 1490 1491 1491 1493 1494 1496 1497
1497 1494 1491 1489 1486 1483 1481 1478 1476 1473 1471 1470 1468 1467 1466 1466 1466 1466 1467 1468 1470 1471 1471 1472 1472 1472 1473 1474 1476 1477 1479 1481 1482 1483 1484 1485 1486 1487 1488 1489 1490 1491 1493
1494 1491 1489 1486 1483 1480 1477 1474 1472 1469 1467 1465 1463 1462 1460 1460 1459 1459 1459 1460 1461 1463 1463 1464 1465 1466 1467 1468 1470 1471 1473 1475 1476 1478 1479 1480 1482 1483 1484 1485 1486 1487 1489
1491 1488 1485 1483 1480 1477 1474 1471 1468 1465 1463 1461 1458 1456 1455 1453 1453 1452 1452 1452 1453 1454 1455 1456 1457 1458 1460 1461 1463 1464 1466 1468 1470 1472 1474 1476 1477 1478 1479 1480 1481 1483 1484
1487 1485 1482 1479 1476 1472 1470 1467 1464 1461 1459 1456 1453 1451 1449 1447 1446 1445 1444 1445 1445 1446 1447 1448 1449 1450 1451 1453 1455 1457 1459 1461 1463 1465 1468 1469 1471 1472 1473 1475 1477 1479 1480
1483 1481 1478 1475 1472 1468 1465 1462 1458 1456 1453 1450 1447 1444 1441 1439 1438 1437 1436 1437 1437 1438 1439 1439 1440 1441 1442 1444 1446 1449 1451 1453 1455 1458 1460 1462 1464 1466 1468 1470 1472 1474 1476
1479 1476 1473 1470 1467 1464 1460 1456 1452 1449 1446 1443 1439 1436 1434 1431 1429 1428 1428 1427 1428 1428 1429 1429 1430 1432 1433 1435 1438 1440 1442 1445 1447 1450 1453 1455 1457 1460 1462 1464 1466 1468 1470
1474 1471 1468 1465 1462 1458 1455 1451 1447 1443 1439 1435 1433 1429 1426 1424 1421 1420 1419 1418 1417 1418 1418 1420 1421 1422 1424 1426 1429 1431 1434 1437 1439 1442 1445 1448 1450 1453 1455 1458 1460 1463 1465
1468 1465 1462 1459 1456 1453 1449 1446 1442 1438 1434 1430 1426 1423 1420 1416 1414 1412 1411 1410 1409 1409 1409 1410 1412 1413 1415 1417 1420 1422 1425 1428 1431 1434 1437 1440 1443 1446 1449 1452 1454 1457 1459
1461 1458 1455 1452 1449 1446 1443 1439 1436 1432 1428 1424 1421 1417 1414 1410 1407 1405 1404 1402 1402 1401 1401 1402 1402 1404 1406 1408 1410 1413 1416 1420 1423 1426 1429 1432 1435 1439 1442 1445 1448 1450 1453
1454 1452 1448 1445 1443 1439 1436 1432 1429 1425 1421 1417 1414 1411 1408 1404 1401 1398 1396 1395 1394 1393 1393 1393 1394 1395 1396 1398 1401 1404 1407 1411 1414 1417 1421 1424 1428 1431 1435 1438 1441 1444 1447
1447 1444 1442 1439 1435 1432 1429 1425 1422 1418 1414 1410 1406 1404 1400 1397 1394 1391 1389 1387 1386 1385 1385 1384 1385 1386 1387 1389 1392 1395 1398 1401 1405 1409 1413 1416 1420 1424 1428 1431 1434 1438 1441
1440 1437 1434 1431 1428 1424 1421 1417 1414 1410 1406 1402 1399 1396 1392 1389 1386 1384 1381 1379 1378 1376 1376 1375 1375 1376 1378 1380 1383 1386 1389 1392 1396 1400 1404 1408 1413 1417 1420 1424 1428 1431 1434
1432 1429 1426 1423 1419 1416 1412 1409 1405 1401 1398 1394 1390 1387 1384 1381 1378 1375 1373 1371 1369 1367 1366 1366 1366 1367 1368 1371 1373 1377 1380 1384 1388 1392 1396 1401 1405 1410 1414 1418 1421 1425 1429
1424 1421 1418 1414 1411 1407 1404 1400 1396 1392 1389 1385 1381 1378 1375 1372 1369 1366 1364 1362 1360 1358 1358 1357 1357 1358 1359 1362 1364 1368 1371 1376 1380 1384 1389 1393 1398 1403 1407 1411 1415 1419 1423
1416 1413 1409 1406 1402 1398 1394 1390 1386 1382 1379 1375 1371 1368 1365 1362 1359 1356 1354 1352 1351 1349 1348 1348 1348 1349 1351 1353 1356 1359 1363 1368 1373 1377 1382 1386 1391 1396 1401 1405 1409 1413 1417